Lapse_Rate
5.9 6.0 5.9 6.0 6.0 5.9 6.0 6.0 5.9 5.7 5.7 5.7 5.6 5.9 6.0 5.9 5.8 5.8 5.9 6.0 6.0 6.1 6.0 5.9 5.9 5.9 6.1 6.0 6.4 6.6 6.5 6.5 6.5 6.6 6.4 6.3 6.2 6.5 6.7 6.7 6.4 6.2 6.2 6.3 6.3 6.5 6.2
6.1 6.2 6.3 6.4 6.4 6.3 6.3 6.2 6.1 6.0 6.0 5.9 5.8 5.9 6.0 6.0 5.9 6.0 5.9 5.8 5.8 5.9 5.9 5.8 5.9 5.9 6.0 6.1 6.5 6.5 6.3 6.4 6.4 6.4 6.4 6.4 6.3 6.1 6.3 6.5 6.2 6.6 6.2 6.4 6.4 6.4 6.0
6.3 6.3 6.4 6.5 6.3 6.4 6.5 6.4 6.3 6.2 6.2 6.3 6.3 6.1 6.1 6.2 6.1 6.1 6.0 6.1 5.8 5.7 5.6 5.7 5.8 5.8 6.0 5.9 6.1 6.5 6.4 6.4 6.4 6.4 6.3 6.4 6.3 6.2 6.1 6.3 6.0 6.4 6.2 6.4 6.6 6.6 6.5
6.5 6.7 6.6 6.5 6.6 6.6 6.6 6.6 6.6 6.5 6.4 6.4 6.4 6.3 6.2 6.1 6.1 6.1 6.0 5.7 5.5 5.6 5.6 5.5 5.5 5.8 5.9 6.0 6.2 6.1 6.2 6.5 6.5 6.5 6.3 6.2 6.3 6.4 6.1 5.9 6.1 6.1 5.9 6.4 6.9 6.7 6.4
6.7 6.8 6.8 6.7 6.6 6.7 6.8 6.8 6.7 6.6 6.6 6.4 6.2 6.2 6.3 6.2 6.0 6.0 6.1 6.0 5.7 5.8 5.4 5.5 5.4 5.5 5.8 6.1 6.2 6.2 6.2 6.4 6.6 6.5 6.3 6.2 6.3 6.3 6.3 6.2 6.2 6.1 6.4 6.6 6.4 6.4 6.1
6.7 6.7 6.7 6.7 6.7 6.7 6.7 6.6 6.7 6.7 6.7 6.6 6.4 6.2 6.2 5.9 6.1 6.1 6.0 6.0 5.7 5.5 5.4 5.3 5.4 5.3 5.6 5.4 6.0 6.3 6.1 6.1 6.0 6.2 6.3 6.2 5.9 6.2 6.2 5.6 6.1 6.1 6.0 6.1 6.2 6.4 6.4
6.5 6.5 6.7 6.6 6.6 6.7 6.7 6.5 6.5 6.4 6.4 6.4 6.4 6.2 6.0 6.0 5.9 5.7 5.7 5.6 5.4 5.3 5.7 5.6 5.3 5.3 5.1 5.2 5.5 5.9 5.8 5.7 5.9 5.8 6.1 5.8 5.7 6.3 6.4 5.6 5.7 5.8 6.1 5.9 6.5 6.7 6.4
6.2 6.4 6.3 6.3 6.3 6.2 6.2 6.2 6.2 6.2 6.1 6.1 6.2 6.1 6.0 6.0 5.8 5.8 5.6 5.3 5.0 4.7 5.5 5.8 5.9 5.2 5.4 5.1 4.4 5.3 5.4 5.5 5.7 5.7 5.7 5.7 5.0 6.1 5.9 5.6 5.9 6.0 6.1 6.3 6.1 6.3 6.3
5.8 6.0 6.1 6.1 6.1 6.1 6.0 6.0 6.0 5.9 5.9 5.9 5.9 5.9 6.0 6.1 5.9 5.7 5.7 5.3 4.7 4.6 4.7 5.5 6.0 6.2 6.1 5.4 5.0 4.8 5.1 5.4 5.5 5.0 5.7 5.3 5.9 5.9 5.8 5.9 6.1 6.2 6.1 5.9 5.9 6.2 6.3
5.9 6.0 5.9 5.9 5.9 5.9 5.9 5.9 5.8 5.8 5.8 5.7 5.7 5.7 5.8 5.9 5.9 5.8 5.8 5.6 5.4 4.8 4.6 5.2 5.6 5.9 6.2 5.9 5.0 5.2 5.6 4.9 5.1 5.6 5.9 5.6 6.1 6.3 6.0 5.9 6.3 5.8 6.3 6.0 6.3 5.9 5.8
6.0 6.0 6.0 6.0 6.0 6.0 5.9 6.0 5.9 5.8 5.9 5.7 5.6 5.6 5.5 5.7 5.7 5.9 6.1 5.8 5.4 5.4 5.7 5.9 5.1 4.9 5.5 5.8 6.1 5.7 6.1 5.2 5.0 5.4 6.0 5.9 6.2 6.4 6.3 6.2 6.3 6.1 6.2 6.2 6.2 6.0 5.5
6.1 6.1 6.0 6.0 6.0 6.0 6.1 6.2 6.2 6.2 6.2 6.0 5.8 5.7 5.6 6.0 6.1 6.7 6.6 5.8 5.7 6.2 5.6 5.7 4.9 4.9 5.2 5.9 6.3 6.0 5.7 5.2 5.2 5.5 6.0 5.6 6.5 6.1 6.1 6.6 6.5 6.5 6.6 6.4 6.7 6.2 4.9
6.2 6.2 6.2 6.2 6.2 6.3 6.4 6.4 6.4 6.5 6.6 6.6 6.2 6.2 5.9 6.2 6.8 6.5 6.3 5.9 6.0 6.4 6.0 5.8 6.0 5.8 6.1 6.0 6.2 6.2 6.3 5.9 5.7 5.8 6.2 6.5 6.1 6.6 6.3 6.4 6.3 6.7 6.5 6.1 5.9 5.5 5.3
6.3 6.3 6.4 6.4 6.4 6.5 6.6 6.7 6.7 6.7 6.8 6.9 6.9 6.5 6.4 6.6 6.6 6.8 6.5 6.1 6.3 6.4 6.5 7.2 7.2 6.9 6.5 6.9 6.2 6.9 6.7 6.2 6.1 6.3 6.7 6.3 6.5 6.9 6.5 6.7 7.1 6.8 6.8 6.7 6.2 6.0 5.7
6.3 6.4 6.4 6.5 6.5 6.6 6.7 6.8 6.9 7.0 7.0 6.9 6.8 7.0 7.1 7.1 6.7 6.7 5.9 5.8 6.2 7.2 7.0 7.2 7.8 7.2 6.5 6.5 6.9 6.7 6.8 6.6 6.7 6.5 6.2 6.7 6.6 7.2 7.1 7.2 6.9 7.0 7.1 7.1 6.9 6.8 6.1
6.4 6.5 6.4 6.4 6.5 6.6 6.7 6.8 6.9 7.0 7.0 6.9 6.8 7.0 7.5 7.4 6.9 6.3 6.0 5.6 6.7 7.6 7.1 7.4 7.2 7.0 6.9 6.9 7.2 7.1 7.0 7.0 7.2 7.0 6.9 6.9 6.4 7.3 7.1 7.0 7.1 7.6 7.2 7.1 6.8 6.1 5.9
6.4 6.4 6.4 6.5 6.6 6.7 6.7 7.0 7.1 7.2 7.0 7.0 7.0 6.7 7.8 7.5 6.0 6.2 5.8 6.1 6.6 6.9 6.7 7.0 7.3 7.0 7.3 7.2 7.4 7.1 7.2 7.4 7.6 7.2 7.2 6.6 6.7 7.7 7.2 6.6 7.8 7.9 7.1 6.8 6.9 6.6 5.4
6.4 6.5 6.5 6.6 6.6 6.7 7.0 7.1 7.4 7.6 7.3 7.3 7.3 6.8 7.4 6.6 6.1 5.9 5.4 6.3 6.3 6.5 6.9 6.8 7.0 6.9 7.3 7.4 7.4 7.2 7.3 7.6 7.6 7.6 7.3 7.1 6.6 6.5 6.8 7.4 7.8 7.8 7.0 6.9 6.7 6.6 6.9
6.3 6.3 6.6 6.6 6.6 6.8 7.1 7.3 7.7 7.7 7.6 7.7 7.5 6.9 6.2 6.4 6.2 5.7 5.7 5.6 6.0 6.4 6.6 6.8 6.8 7.1 7.0 7.3 7.5 7.2 7.4 7.7 7.3 7.1 7.1 6.8 6.2 6.6 7.0 7.7 7.9 7.3 6.7 6.5 6.7 6.6 6.6
6.3 6.4 6.5 6.5 6.6 6.9 7.1 7.3 7.6 7.9 7.6 7.3 7.0 6.6 6.3 5.6 6.2 6.2 6.3 5.6 5.8 6.2 6.5 7.1 7.2 7.1 7.1 7.2 7.3 7.2 7.4 7.2 7.3 6.8 7.1 6.6 6.6 6.9 6.8 6.8 6.9 7.0 6.7 7.0 6.8 6.4 6.5
6.2 6.5 6.6 6.5 6.7 6.9 7.2 7.1 7.3 6.5 6.7 7.1 6.9 6.5 6.2 5.2 5.5 5.6 5.5 5.6 5.8 6.0 6.4 7.0 6.8 7.1 7.2 7.1 7.3 7.2 7.0 6.6 6.6 6.7 6.5 6.6 6.6 7.3 6.6 6.2 6.4 6.4 6.7 6.6 6.8 6.3 5.9
6.3 6.3 6.3 6.4 6.7 7.0 7.0 6.8 6.7 6.2 6.5 6.9 5.9 5.3 5.5 6.0 5.3 6.0 5.5 5.6 5.9 6.0 6.5 6.5 6.7 6.7 7.1 7.1 7.4 7.0 6.2 6.3 6.8 7.2 7.0 7.0 7.2 7.0 6.9 6.5 6.5 6.4 6.1 6.4 6.5 5.9 5.9
6.1 6.0 6.1 6.4 6.7 6.5 6.8 6.6 5.8 6.3 6.6 5.9 5.9 5.8 5.3 5.9 5.3 5.7 5.7 6.1 6.1 6.2 6.3 6.8 6.8 6.8 7.0 7.3 6.9 7.1 6.9 6.9 6.8 6.8 7.0 7.1 6.8 6.6 6.7 7.0 6.1 5.5 7.2 6.8 6.4 6.0 5.6
6.4 6.1 6.1 6.2 6.3 6.3 6.3 6.5 6.1 6.1 6.0 6.0 6.3 6.4 5.6 5.8 5.8 6.2 5.7 5.9 6.3 6.2 6.1 6.4 6.0 6.3 6.7 6.9 6.8 6.4 6.6 6.4 6.8 7.2 7.2 7.2 7.2 6.7 6.8 6.6 5.7 6.7 6.7 6.6 5.9 6.4 6.0
6.5 6.3 6.2 6.2 6.4 6.5 6.6 6.4 6.0 6.1 6.0 6.2 6.3 6.5 6.6 6.2 6.1 5.5 5.5 6.3 6.1 6.3 6.0 5.9 6.2 6.1 6.0 6.2 6.1 6.0 6.1 6.4 6.9 6.9 6.9 7.1 7.0 6.5 6.5 6.0 6.1 6.3 6.5 6.4 6.2 6.2 6.8
6.8 6.5 6.5 6.6 6.8 6.6 6.5 6.1 6.2 6.0 5.9 6.3 6.4 6.1 6.1 6.3 6.1 6.1 6.0 6.1 6.3 5.9 5.7 5.8 5.9 6.2 6.0 6.5 6.4 6.4 6.3 6.8 7.0 7.0 7.0 6.8 6.5 6.2 6.4 6.5 5.8 5.8 6.3 5.9 5.5 6.1 7.1
6.9 6.8 6.8 6.9 6.6 6.5 6.1 5.8 5.8 5.8 5.7 5.6 6.2 6.2 6.0 6.1 6.0 6.0 6.1 6.2 6.2 5.9 5.9 5.9 6.0 5.9 5.8 6.5 6.8 7.2 7.5 8.0 7.5 7.3 7.0 6.6 6.5 6.3 6.4 6.0 5.3 5.6 6.1 5.4 5.5 6.6 6.9
7.0 7.0 7.0 6.7 6.8 6.3 5.8 5.6 5.6 5.8 5.5 5.5 5.6 5.6 6.1 6.1 6.0 5.9 5.9 6.0 5.8 5.6 5.7 5.8 5.8 5.7 6.1 6.8 7.2 7.7 8.0 8.0 7.5 7.2 6.8 6.5 6.2 6.2 6.2 6.1 5.8 5.9 6.0 6.0 6.3 6.3 6.6
7.2 7.1 6.9 6.7 6.5 6.2 5.9 5.9 5.8 5.7 5.7 5.6 5.7 5.7 5.9 5.7 5.7 5.6 5.6 5.4 5.3 5.5 5.7 5.6 6.4 6.5 6.8 7.2 7.6 7.7 7.6 7.7 7.3 6.8 6.5 6.3 6.3 6.7 6.3 6.6 6.4 6.5 6.3 6.6 6.9 6.6 6.9
Wind_Speed
4 3 3 4 3 5 7 9 18 19 19 18 16 15 14 13 10 9 8 9 11 13 16 19 20 21 9 4 6 7 6 5 5 3 6 6 6 5 5 4 8 4 3 6 6 6 3
8 5 5 3 3 5 7 8 9 19 19 19 18 18 16 16 12 10 9 9 11 13 15 17 16 20 1 5 7 13 8 4 7 3 8 4 3 8 5 5 4 6 8 6 6 9 6
6 6 7 8 6 5 4 6 7 12 17 19 18 18 17 17 14 11 10 10 12 14 15 16 13 5 4 12 3 11 7 3 1 3 5 7 7 4 9 7 6 8 6 9 11 8 7
3 6 6 7 7 6 4 4 4 6 8 9 17 18 17 17 16 12 11 11 12 15 16 16 10 3 6 6 2 7 3 5 5 5 4 6 4 4 3 6 6 4 4 3 8 13 6
6 5 7 8 8 8 9 6 3 3 4 4 7 16 18 19 18 13 10 10 14 15 16 13 4 3 7 2 2 7 6 6 2 3 2 6 2 4 4 3 5 3 5 7 5 7 5
8 8 8 9 8 8 8 11 8 4 2 4 7 6 15 17 16 12 8 8 14 12 9 9 8 5 5 6 6 6 3 4 2 6 3 4 3 2 2 3 4 4 2 4 2 4 1
9 11 10 10 10 9 8 10 6 6 4 3 4 5 8 16 17 11 1 4 4 2 5 9 5 5 7 4 5 3 6 5 5 4 5 5 2 7 12 11 9 5 6 6 7 8 3
12 11 12 11 10 10 12 12 11 9 8 5 3 4 9 17 13 12 1 2 2 2 7 12 19 19 20 11 7 8 7 6 7 8 8 6 11 16 13 3 2 4 7 8 8 7 6
12 11 11 12 11 11 12 13 13 10 5 1 2 3 3 16 16 5 2 1 2 2 4 6 12 13 12 13 11 9 9 8 6 9 12 11 12 7 5 5 5 5 5 7 4 7 5
14 13 11 12 13 12 13 14 13 12 7 4 0 3 15 20 5 4 2 4 4 1 3 7 7 8 11 9 6 12 15 8 8 10 10 11 15 17 8 6 6 7 1 5 5 5 4
13 14 13 15 13 13 14 14 13 14 10 8 6 5 19 19 5 4 4 13 5 3 3 2 4 3 3 12 2 8 12 7 10 9 5 8 4 7 7 6 7 8 5 3 4 6 5
15 15 14 13 14 15 16 16 17 16 17 15 12 10 11 11 4 4 12 9 4 3 8 4 3 3 5 12 6 2 4 6 3 7 16 15 14 4 4 7 7 5 4 7 7 3 4
15 14 13 13 15 16 18 19 18 17 18 18 16 12 13 12 5 12 16 4 2 5 2 6 5 6 7 7 12 7 6 5 4 3 7 12 17 11 4 3 4 5 1 3 3 1 6
16 14 15 14 15 18 20 20 19 19 19 18 16 16 15 17 16 23 8 3 8 10 14 3 4 8 9 7 12 12 7 9 11 14 8 5 5 16 11 9 6 9 8 4 4 2 6
16 15 15 14 17 19 20 22 21 19 18 19 18 7 8 9 24 16 9 7 8 11 6 11 16 8 6 12 6 11 13 11 10 15 6 5 4 9 12 6 8 3 10 7 3 3 2
17 16 15 15 17 21 23 22 23 24 22 21 8 6 12 22 26 13 9 19 12 17 9 6 7 7 9 9 10 7 7 6 14 13 10 1 4 8 7 6 5 4 1 2 2 2 4
17 16 17 15 16 20 23 27 31 31 24 22 8 5 6 33 11 11 15 15 22 14 11 11 10 6 8 8 9 6 4 5 8 6 8 5 5 7 4 5 6 3 5 4 4 3 3
17 17 15 14 16 20 20 16 27 32 22 18 7 9 14 16 9 8 16 27 16 11 22 16 9 12 6 9 6 7 7 2 4 7 6 2 4 2 6 8 9 10 5 3 4 4 1
17 17 13 11 15 12 15 19 30 26 29 7 6 3 12 19 15 14 13 23 21 16 18 12 13 11 2 7 4 5 1 4 6 6 5 5 2 1 4 7 5 2 6 2 4 3 5
16 16 12 10 9 6 13 17 27 27 24 5 4 4 3 12 13 25 25 17 26 20 17 18 5 6 4 3 5 5 4 4 6 5 9 7 1 5 2 1 3 3 5 6 3 1 2
17 15 11 11 4 3 9 17 20 18 13 3 1 5 8 11 16 6 22 16 18 14 23 11 3 6 6 4 3 4 3 2 2 9 4 5 3 2 1 6 5 1 3 2 2 3 5
17 15 12 12 10 6 8 11 15 17 9 2 2 2 5 11 10 6 18 17 21 22 18 13 6 9 6 7 7 6 6 6 5 2 5 4 2 3 2 4 5 3 5 5 5 3 4
18 16 13 13 12 11 7 5 10 16 7 1 3 1 3 12 10 7 10 18 18 21 8 16 13 12 13 11 11 8 13 11 6 9 7 6 4 3 4 5 4 6 9 9 4 2 7
16 15 14 13 12 18 12 4 7 9 8 2 2 1 3 5 13 14 15 13 16 15 5 10 7 12 7 6 8 6 7 7 4 10 7 6 6 4 1 5 4 4 2 7 5 5 6
14 13 14 15 13 10 18 10 1 8 9 2 2 2 2 3 13 14 18 17 13 6 2 5 3 5 6 8 6 5 2 2 4 7 7 5 5 1 3 5 0 2 6 6 7 6 9
15 12 13 13 14 14 12 9 4 9 10 1 2 1 2 3 11 12 13 15 12 5 5 5 3 2 3 3 4 5 4 5 6 5 14 12 6 4 3 1 4 2 6 7 9 4 15
17 14 12 13 12 12 13 8 11 12 2 1 2 5 1 2 4 10 6 11 7 5 4 4 4 3 3 2 3 3 4 8 7 7 6 4 2 5 2 3 2 3 7 4 4 4 13
19 16 11 9 19 13 8 11 14 6 6 3 4 4 2 2 8 7 9 9 10 6 5 7 4 2 2 2 3 3 2 1 4 1 6 6 5 3 3 2 4 3 4 3 3 3 7
17 16 17 16 15 11 8 8 6 6 8 4 3 1 3 3 3 11 12 3 8 8 5 6 6 4 5 2 1 1 2 3 3 3 4 1 3 5 2 1 2 3 3 4 6 5 5
Wind_Direction
284 291 318 324 323 331 343 284 240 233 229 225 228 231 230 236 242 258 280 300 313 324 325 326 328 330 350 299 245 186 206 248 285 266 239 326 321 304 317 348 334 307 313 295 296 338 299
258 255 269 280 324 343 352 344 345 239 232 227 226 228 229 230 237 246 268 290 306 315 316 316 325 325 228 283 141 166 203 209 245 256 313 309 347 326 305 274 280 292 297 286 303 295 294
306 263 272 260 252 288 327 333 348 13 244 229 224 225 226 229 234 241 269 283 300 308 307 308 316 308 282 239 302 162 178 239 12 321 318 333 356 17 330 317 330 305 322 308 261 235 229
289 308 319 321 288 250 278 316 350 360 15 264 228 221 223 228 233 238 253 280 296 302 304 303 304 271 248 309 346 252 219 245 210 250 272 297 349 300 242 292 317 271 269 303 286 195 192
286 292 301 312 315 300 256 259 279 317 4 360 349 229 223 225 226 226 241 275 292 296 295 290 267 226 262 266 240 238 215 229 217 206 217 265 5 227 310 205 319 244 242 213 312 179 119
276 274 282 295 300 304 309 266 243 247 293 354 5 336 229 221 223 217 238 281 285 311 274 246 257 302 256 241 197 201 158 279 305 278 247 201 226 235 295 112 238 299 224 321 247 271 118
267 271 276 282 289 295 294 296 277 227 238 280 331 335 273 214 210 196 200 306 323 252 254 200 207 239 303 222 63 186 180 160 247 264 224 228 178 219 231 227 236 307 294 279 291 288 294
265 254 269 271 274 292 296 290 284 273 251 253 273 322 323 211 173 148 22 237 60 212 301 242 258 261 268 276 226 205 201 192 195 225 236 277 227 241 250 211 266 291 289 291 291 288 38
275 255 272 275 277 290 287 286 271 256 238 245 282 324 36 131 123 125 172 300 248 285 282 244 230 247 223 228 240 222 190 186 244 236 236 233 237 101 194 239 269 247 235 261 267 335 337
263 260 261 276 279 292 289 284 294 235 218 208 111 341 130 125 107 155 211 206 220 90 318 266 217 243 212 199 252 210 238 170 209 237 259 262 247 256 205 222 233 241 6 22 348 358 244
254 267 261 270 269 271 280 273 274 263 232 210 193 201 154 167 132 156 208 180 155 72 272 256 211 138 157 181 349 209 204 183 227 246 232 241 294 251 236 212 236 242 60 341 310 282 300
251 259 259 259 260 268 272 272 260 258 250 220 209 214 199 206 237 267 146 132 70 138 225 282 30 207 210 197 219 0 110 67 24 264 273 272 266 313 212 237 217 58 2 293 249 219 272
251 261 264 260 267 273 274 273 263 258 251 223 222 237 207 191 199 194 141 95 145 219 190 214 187 183 221 182 202 227 175 154 187 222 247 259 249 239 182 248 135 118 87 305 330 141 225
248 258 263 261 271 278 278 270 263 261 249 219 224 234 228 214 212 163 150 112 216 225 226 233 169 174 209 214 200 229 196 201 203 245 305 251 287 223 193 197 185 188 183 189 269 210 292
252 258 261 266 275 279 282 278 271 258 241 232 234 230 220 205 205 171 163 199 208 218 246 228 246 226 212 243 179 197 232 231 208 201 203 306 270 333 165 156 192 233 210 234 298 303 338
255 258 266 272 280 286 288 277 272 262 245 232 223 223 222 186 191 176 190 218 229 230 257 301 257 240 196 196 190 179 185 215 232 227 223 154 326 316 144 149 204 166 42 36 316 256 248
263 262 263 274 288 296 291 284 282 272 250 219 211 225 183 175 162 180 207 218 220 244 222 243 256 234 199 186 175 198 213 257 215 152 114 103 130 296 318 179 187 225 230 227 186 173 214
258 257 261 280 294 297 310 323 321 291 236 200 202 207 161 150 168 200 210 211 230 235 225 238 247 213 237 193 158 190 210 242 105 134 148 160 111 225 271 316 209 243 186 206 150 267 295
256 249 256 276 286 319 344 344 345 306 183 151 178 116 181 159 192 203 218 218 226 210 242 223 230 195 176 185 159 150 110 259 164 162 152 180 90 355 289 285 251 203 160 138 119 116 209
258 238 244 265 280 337 1 11 17 21 163 110 129 146 182 204 197 197 196 201 212 227 245 225 183 91 109 78 18 180 181 175 225 108 93 63 228 200 230 191 321 37 67 33 34 164 256
256 224 231 244 213 49 16 30 33 26 35 75 164 199 166 193 207 189 192 194 196 209 222 189 154 155 146 118 112 164 180 135 43 129 133 132 209 109 111 170 135 357 38 6 252 264 243
245 216 220 232 197 126 45 27 28 35 23 63 133 219 184 160 152 171 186 181 189 209 192 193 142 164 173 155 184 166 177 183 177 171 158 185 191 119 289 240 170 182 212 206 268 207 111
228 212 213 226 221 177 119 37 22 28 39 296 266 93 134 167 158 176 188 188 205 206 202 191 159 174 189 202 195 185 202 162 159 172 182 161 176 137 252 192 190 254 210 193 191 114 183
206 211 214 226 232 202 162 145 28 16 29 275 313 270 155 168 188 192 171 193 199 193 152 172 109 165 183 189 139 121 189 188 267 179 173 179 190 162 217 109 222 264 267 177 168 115 111
199 204 212 223 221 237 188 180 225 331 331 258 307 344 353 147 190 177 181 181 166 106 65 101 31 126 152 99 104 116 110 79 268 183 214 222 191 219 167 203 248 207 210 167 146 202 154
205 206 222 217 220 208 175 185 239 294 316 292 261 305 334 92 195 175 162 144 134 146 101 46 94 124 118 143 171 164 168 174 175 189 188 197 166 155 335 287 236 297 166 156 221 257 162
218 200 215 221 200 201 171 184 260 275 292 262 287 214 290 145 197 150 154 152 141 106 111 167 166 57 25 129 201 165 190 182 165 172 172 172 194 200 198 233 122 64 114 82 162 252 149
189 187 169 155 169 155 172 223 252 275 339 343 272 231 208 190 156 177 123 149 156 147 152 171 102 225 103 169 181 242 163 152 106 94 167 165 171 186 186 219 221 122 82 199 195 74 140
184 179 161 145 141 163 199 249 273 265 269 230 255 170 224 97 136 85 76 231 174 200 134 163 165 156 181 148 228 182 57 59 102 145 91 99 189 151 111 129 97 351 117 150 109 85 84